Time,TemperatureF,DewpointF,PressureIn,WindDirection,WindDirectionDegrees,WindSpeedMPH,WindSpeedGustMPH,Humidity,HourlyPrecipIn,Conditions,Clouds,dailyrainin,SoftwareType,DateUTC
2013-06-12 00:00:00,67.6,65.0,29.84,NW,307,0.0,3.0,90,0.00,,,0.11,weatherlink.com 1.10,2013-06-12 05:00:00,
2013-06-12 00:15:00,67.7,65.0,29.84,NW,307,0.0,0.0,90,0.00,,,0.11,weatherlink.com 1.10,2013-06-12 05:15:00,
2013-06-12 00:30:00,67.4,65.0,29.85,NW,307,0.0,0.0,90,0.00,,,0.11,weatherlink.com 1.10,2013-06-12 05:30:00,
2013-06-12 00:45:00,67.2,65.0,29.84,NW,307,0.0,0.0,91,0.00,,,0.11,weatherlink.com 1.10,2013-06-12 05:45:00,
2013-06-12 01:00:00,66.7,64.0,29.85,NW,307,0.0,2.0,91,0.00,,,0.00,weatherlink.com 1.10,2013-06-12 06:00:00,
2013-06-12 01:15:00,66.3,64.0,29.85,NW,307,0.0,1.0,92,0.00,,,0.00,weatherlink.com 1.10,2013-06-12 06:15:00,
2013-06-12 01:30:00,66.0,64.0,29.85,NW,307,0.0,0.0,93,0.00,,,0.00,weatherlink.com 1.10,2013-06-12 06:30:00,
2013-06-12 01:45:00,65.7,64.0,29.86,NW,307,0.0,0.0,93,0.00,,,0.00,weatherlink.com 1.10,2013-06-12 06:45:00,
2013-06-12 02:00:00,65.4,64.0,29.86,NW,307,0.0,2.0,94,0.00,,,0.00,weatherlink.com 1.10,2013-06-12 07:00:00,
2013-06-12 02:15:00,65.5,64.0,29.87,NW,307,0.0,3.0,94,0.00,,,0.00,weatherlink.com 1.10,2013-06-12 07:15:00,
2013-06-12 02:30:00,65.8,64.0,29.86,NW,307,1.0,1.0,94,0.00,,,0.00,weatherlink.com 1.10,2013-06-12 07:30:00,
2013-06-12 02:45:00,65.7,64.0,29.85,NW,307,0.0,1.0,94,0.00,,,0.00,weatherlink.com 1.10,2013-06-12 07:45:00,
2013-06-12 03:00:00,65.6,64.0,29.84,NW,307,0.0,0.0,94,0.00,,,0.00,weatherlink.com 1.10,2013-06-12 08:00:00,
2013-06-12 03:15:00,65.6,64.0,29.84,NW,307,0.0,0.0,94,0.00,,,0.00,weatherlink.com 1.10,2013-06-12 08:15:00,
2013-06-12 03:30:00,65.7,64.0,29.82,NW,307,0.0,2.0,94,0.00,,,0.00,weatherlink.com 1.10,2013-06-12 08:30:00,
2013-06-12 03:45:00,66.5,64.0,29.79,NW,307,0.0,3.0,92,0.00,,,0.00,weatherlink.com 1.10,2013-06-12 08:45:00,
2013-06-12 04:00:00,67.0,64.0,29.79,NW,307,0.0,1.0,91,0.00,,,0.00,weatherlink.com 1.10,2013-06-12 09:00:00,
2013-06-12 04:16:00,66.7,64.0,29.79,NE,42,0.0,2.0,91,0.00,,,0.00,weatherlink.com 1.10,2013-06-12 09:16:00,
2013-06-12 04:31:00,67.5,64.0,29.82,NE,51,0.0,1.0,89,0.00,,,0.00,weatherlink.com 1.10,2013-06-12 09:31:00,
2013-06-12 04:46:00,67.2,64.0,29.84,NE,46,0.0,3.0,90,0.00,,,0.00,weatherlink.com 1.10,2013-06-12 09:46:00,
2013-06-12 05:01:00,67.0,64.0,29.84,NE,49,0.0,2.0,91,0.00,,,0.00,weatherlink.com 1.10,2013-06-12 10:01:00,
2013-06-12 05:16:00,66.8,64.0,29.83,NE,49,0.0,1.0,91,0.00,,,0.00,weatherlink.com 1.10,2013-06-12 10:16:00,
2013-06-12 05:31:00,66.2,64.0,29.82,NE,49,1.0,3.0,92,0.00,,,0.00,weatherlink.com 1.10,2013-06-12 10:31:00,
2013-06-12 05:46:00,66.3,64.0,29.84,North,5,1.0,2.0,92,0.00,,,0.00,weatherlink.com 1.10,2013-06-12 10:46:00,
2013-06-12 06:01:00,66.5,64.0,29.84,North,5,0.0,2.0,92,0.00,,,0.00,weatherlink.com 1.10,2013-06-12 11:01:00,
2013-06-12 06:16:00,66.5,65.0,29.87,North,5,0.0,1.0,93,0.00,,,0.00,weatherlink.com 1.10,2013-06-12 11:16:00,
2013-06-12 06:31:00,66.8,65.0,29.87,North,5,2.0,2.0,93,0.00,,,0.00,weatherlink.com 1.10,2013-06-12 11:31:00,
2013-06-12 06:46:00,67.1,65.0,29.89,North,5,0.0,1.0,93,0.00,,,0.00,weatherlink.com 1.10,2013-06-12 11:46:00,
2013-06-12 07:01:00,67.5,66.0,29.90,North,5,0.0,2.0,94,0.00,,,0.00,weatherlink.com 1.10,2013-06-12 12:01:00,
2013-06-12 07:16:00,67.8,66.0,29.91,North,5,0.0,0.0,94,0.00,,,0.00,weatherlink.com 1.10,2013-06-12 12:16:00,
2013-06-12 07:31:00,68.1,67.0,29.90,North,5,0.0,0.0,95,0.00,,,0.00,weatherlink.com 1.10,2013-06-12 12:31:00,
2013-06-12 07:46:00,68.6,66.0,29.88,North,5,0.0,2.0,92,0.00,,,0.00,weatherlink.com 1.10,2013-06-12 12:46:00,
2013-06-12 08:01:00,69.6,67.0,29.86,NE,36,0.0,3.0,90,0.00,,,0.00,weatherlink.com 1.10,2013-06-12 13:01:00,
2013-06-12 08:16:00,70.1,67.0,29.86,NE,38,1.0,2.0,88,0.00,,,0.00,weatherlink.com 1.10,2013-06-12 13:16:00,
2013-06-12 08:31:00,70.3,67.0,29.85,East,81,0.0,3.0,88,0.00,,,0.00,weatherlink.com 1.10,2013-06-12 13:31:00,
2013-06-12 08:46:00,70.6,67.0,29.86,SSE,161,0.0,1.0,87,0.00,,,0.00,weatherlink.com 1.10,2013-06-12 13:46:00,
2013-06-12 09:01:00,71.3,68.0,29.87,SSE,159,1.0,2.0,89,0.00,,,0.00,weatherlink.com 1.10,2013-06-12 14:01:00,
2013-06-12 09:16:00,71.9,68.0,29.86,SE,136,0.0,2.0,86,0.00,,,0.00,weatherlink.com 1.10,2013-06-12 14:16:00,
2013-06-12 09:31:00,72.7,68.0,29.85,SE,136,0.0,2.0,84,0.00,,,0.00,weatherlink.com 1.10,2013-06-12 14:31:00,
2013-06-12 09:46:00,73.3,68.0,29.83,SSE,149,1.0,5.0,82,0.00,,,0.00,weatherlink.com 1.10,2013-06-12 14:46:00,
2013-06-12 10:01:00,73.6,67.0,29.79,SE,127,1.0,7.0,81,0.00,,,0.00,weatherlink.com 1.10,2013-06-12 15:01:00,
2013-06-12 10:16:00,73.8,67.0,29.75,SSE,159,4.0,8.0,79,0.00,,,0.00,weatherlink.com 1.10,2013-06-12 15:16:00,
2013-06-12 10:31:00,74.0,66.0,29.69,SE,144,6.0,11.0,77,0.00,,,0.00,weatherlink.com 1.10,2013-06-12 15:31:00,
2013-06-12 10:46:00,74.6,66.0,29.69,SE,146,4.0,11.0,75,0.00,,,0.00,weatherlink.com 1.10,2013-06-12 15:46:00,
2013-06-12 11:01:00,75.0,66.0,29.68,ESE,119,2.0,8.0,73,0.00,,,0.00,weatherlink.com 1.10,2013-06-12 16:01:00,
2013-06-12 11:16:00,75.0,67.0,29.69,South,171,2.0,6.0,75,0.00,,,0.00,weatherlink.com 1.10,2013-06-12 16:16:00,
2013-06-12 11:31:00,75.6,67.0,29.70,SE,140,3.0,8.0,74,0.00,,,0.00,weatherlink.com 1.10,2013-06-12 16:31:00,
2013-06-12 11:46:00,76.1,68.0,29.70,SE,125,2.0,7.0,76,0.00,,,0.00,weatherlink.com 1.10,2013-06-12 16:46:00,
2013-06-12 12:01:00,77.6,70.0,29.73,SSE,148,2.0,6.0,76,0.00,,,0.00,weatherlink.com 1.10,2013-06-12 17:01:00,
2013-06-12 12:17:00,79.6,71.0,29.74,SW,232,4.0,5.0,75,0.00,,,0.00,weatherlink.com 1.10,2013-06-12 17:17:00,
2013-06-12 12:32:00,81.6,73.0,29.76,WNW,299,3.0,7.0,74,0.00,,,0.00,weatherlink.com 1.10,2013-06-12 17:32:00,
2013-06-12 12:47:00,82.1,73.0,29.76,SE,146,1.0,9.0,73,0.00,,,0.00,weatherlink.com 1.10,2013-06-12 17:47:00,
2013-06-12 13:02:00,82.4,73.0,29.77,South,190,0.0,7.0,73,0.00,,,0.00,weatherlink.com 1.10,2013-06-12 18:02:00,
2013-06-12 13:17:00,82.6,74.0,29.76,WNW,287,6.0,8.0,75,0.00,,,0.00,weatherlink.com 1.10,2013-06-12 18:17:00,
2013-06-12 13:32:00,84.1,74.0,29.75,West,267,0.0,4.0,71,0.00,,,0.00,weatherlink.com 1.10,2013-06-12 18:32:00,
2013-06-12 13:47:00,84.5,74.0,29.75,West,267,0.0,4.0,71,0.00,,,0.00,weatherlink.com 1.10,2013-06-12 18:47:00,
2013-06-12 14:02:00,84.4,75.0,29.74,West,264,1.0,5.0,73,0.00,,,0.00,weatherlink.com 1.10,2013-06-12 19:02:00,
2013-06-12 14:17:00,84.5,73.0,29.73,WSW,254,1.0,4.0,69,0.00,,,0.00,weatherlink.com 1.10,2013-06-12 19:17:00,
2013-06-12 14:32:00,84.8,75.0,29.72,SE,138,0.0,2.0,72,0.00,,,0.00,weatherlink.com 1.10,2013-06-12 19:32:00,
2013-06-12 14:47:00,85.7,75.0,29.72,East,91,0.0,0.0,70,0.00,,,0.00,weatherlink.com 1.10,2013-06-12 19:47:00,
2013-06-12 15:02:00,85.9,74.0,29.71,East,95,0.0,0.0,68,0.00,,,0.00,weatherlink.com 1.10,2013-06-12 20:02:00,
2013-06-12 15:17:00,85.9,76.0,29.71,East,80,0.0,0.0,71,0.00,,,0.00,weatherlink.com 1.10,2013-06-12 20:17:00,
2013-06-12 15:32:00,85.7,76.0,29.70,East,83,0.0,0.0,73,0.00,,,0.00,weatherlink.com 1.10,2013-06-12 20:32:00,
2013-06-12 15:47:00,85.6,76.0,29.68,East,83,0.0,0.0,72,0.00,,,0.00,weatherlink.com 1.10,2013-06-12 20:47:00,
2013-06-12 16:02:00,84.8,76.0,29.67,East,83,0.0,1.0,75,0.00,,,0.00,weatherlink.com 1.10,2013-06-12 21:02:00,
2013-06-12 16:32:00,80.5,72.0,29.61,East,99,3.0,6.0,74,0.00,,,0.00,weatherlink.com 1.10,2013-06-12 21:32:00,
2013-06-12 16:47:00,78.5,73.0,29.60,ENE,66,3.0,7.0,82,0.01,,,0.01,weatherlink.com 1.10,2013-06-12 21:47:00,
2013-06-12 17:00:00,72.5,66.0,29.73,SE,135,4.0,17.0,80,0.44,,,0.44,weatherlink.com 1.10,2013-06-12 22:00:00,
2013-06-12 17:09:00,69.8,67.0,29.68,East,80,0.0,6.0,90,0.87,,,0.87,weatherlink.com 1.10,2013-06-12 22:09:00,
2013-06-12 17:25:00,69.2,68.0,29.67,SSE,156,2.0,5.0,94,0.88,,,0.88,weatherlink.com 1.10,2013-06-12 22:25:00,
2013-06-12 17:39:00,69.9,69.0,29.66,SE,141,4.0,6.0,95,0.88,,,0.88,weatherlink.com 1.10,2013-06-12 22:39:00,
2013-06-12 17:55:00,70.6,69.0,29.61,SE,126,5.0,8.0,94,0.86,,,0.88,weatherlink.com 1.10,2013-06-12 22:55:00,
2013-06-12 18:10:00,71.0,69.0,29.60,SE,142,2.0,5.0,94,0.01,,,0.88,weatherlink.com 1.10,2013-06-12 23:10:00,
2013-06-12 18:25:00,70.8,68.0,29.59,SE,128,5.0,7.0,89,0.00,,,0.88,weatherlink.com 1.10,2013-06-12 23:25:00,
2013-06-12 18:40:00,70.7,67.0,29.60,SE,142,2.0,5.0,89,0.00,,,0.88,weatherlink.com 1.10,2013-06-12 23:40:00,
2013-06-12 18:55:00,70.9,69.0,29.59,SE,135,1.0,8.0,92,0.00,,,0.88,weatherlink.com 1.10,2013-06-12 23:55:00,
2013-06-12 19:10:00,70.5,68.0,29.58,SE,129,0.0,6.0,91,0.01,,,0.89,weatherlink.com 1.10,2013-06-13 00:10:00,
2013-06-12 19:25:00,70.1,68.0,29.60,NE,46,1.0,3.0,92,0.01,,,0.89,weatherlink.com 1.10,2013-06-13 00:25:00,
2013-06-12 19:40:00,69.9,68.0,29.61,East,82,1.0,3.0,94,0.03,,,0.91,weatherlink.com 1.10,2013-06-13 00:40:00,
2013-06-12 19:55:00,69.8,68.0,29.62,East,82,0.0,2.0,95,0.05,,,0.93,weatherlink.com 1.10,2013-06-13 00:55:00,
2013-06-12 20:10:00,69.7,68.0,29.61,East,101,2.0,5.0,94,0.04,,,0.93,weatherlink.com 1.10,2013-06-13 01:10:00,
2013-06-12 20:25:00,69.0,67.0,29.60,East,85,3.0,4.0,94,0.04,,,0.93,weatherlink.com 1.10,2013-06-13 01:25:00,
2013-06-12 20:40:00,68.4,67.0,29.61,NE,49,3.0,3.0,94,0.02,,,0.93,weatherlink.com 1.10,2013-06-13 01:40:00,
2013-06-12 20:55:00,68.1,67.0,29.62,East,90,1.0,2.0,95,0.00,,,0.93,weatherlink.com 1.10,2013-06-13 01:55:00,
2013-06-12 21:10:00,68.0,67.0,29.62,East,82,2.0,3.0,95,0.00,,,0.93,weatherlink.com 1.10,2013-06-13 02:10:00,
2013-06-12 21:25:00,67.4,66.0,29.64,East,84,1.0,2.0,95,0.00,,,0.93,weatherlink.com 1.10,2013-06-13 02:25:00,
2013-06-12 21:40:00,66.6,65.0,29.66,ENE,65,2.0,3.0,94,0.00,,,0.93,weatherlink.com 1.10,2013-06-13 02:40:00,
2013-06-12 21:55:00,66.1,64.0,29.66,NE,54,0.0,2.0,94,0.00,,,0.93,weatherlink.com 1.10,2013-06-13 02:55:00,
2013-06-12 22:10:00,65.9,64.0,29.62,ESE,114,1.0,8.0,94,0.01,,,0.94,weatherlink.com 1.10,2013-06-13 03:10:00,
2013-06-12 22:25:00,65.3,64.0,29.67,ENE,63,0.0,3.0,94,0.04,,,0.97,weatherlink.com 1.10,2013-06-13 03:25:00,
2013-06-12 22:40:00,65.1,64.0,29.69,ESE,102,0.0,2.0,95,0.05,,,0.98,weatherlink.com 1.10,2013-06-13 03:40:00,
2013-06-12 22:55:00,64.8,63.0,29.67,SE,144,2.0,3.0,95,0.05,,,0.98,weatherlink.com 1.10,2013-06-13 03:55:00,
2013-06-12 23:10:00,64.7,63.0,29.64,ESE,105,0.0,2.0,95,0.04,,,0.98,weatherlink.com 1.10,2013-06-13 04:10:00,
2013-06-12 23:25:00,64.5,63.0,29.64,ESE,112,0.0,2.0,95,0.01,,,0.98,weatherlink.com 1.10,2013-06-13 04:25:00,
2013-06-12 23:40:00,64.4,63.0,29.64,ESE,112,0.0,2.0,96,0.00,,,0.98,weatherlink.com 1.10,2013-06-13 04:40:00,
2013-06-12 23:55:00,64.4,63.0,29.64,ESE,112,1.0,2.0,96,0.00,,,0.98,weatherlink.com 1.10,2013-06-13 04:55:00,